Current Version              Previous Version:    01  02  03  04  05  06  07  08  09  10  11  12  13  14  15  16  17  18  19  20  21  22  23  24  25  26  27  28  29  30  
   31  32  33  34  35  36  37  38  39  40  41  42  43  44  45  46  47  48  49  50  51  52  53  54  55  56  57  58  59  60  

[Printable]
416
ASUS44 KLUB 250110
RWRTX
WEST TEXAS WEATHER ROUNDUP
NATIONAL WEATHER SERVICE LUBBOCK TX
800 PM CDT THU JUL 24 2014

NOTE: "FAIR" INDICATES FEW OR NO CLOUDS BELOW 12,000 FEET WITH NO
SIGNIFICANT WEATHER AND/OR OBSTRUCTIONS TO VISIBILITY.

TXZ004-006>008-010-012-014-016-OKZ002-250200-
TEXAS PANHANDLE/OKLAHOMA PANHANDLE

CITY           SKY/WX    TMP DP  RH WIND       PRES   REMARKS
AMARILLO       CLEAR     90  56  31 S16       30.06S
BORGER         CLEAR     96  54  24 S14       30.00F
CANADIAN       CLEAR     94  62  33 S18       29.96S HX  95
DALHART        SUNNY     93  49  22 S18       30.04F
DUMAS          SUNNY     91  52  26 S13G24    30.04S
GUYMON         SUNNY     95  52  23 S15G24    29.95S
HEREFORD       SUNNY     89  56  33 SE12      30.08F
PAMPA          CLEAR     90  56  31 S17G23    30.04S
PERRYTON       CLEAR     96  55  24 S21G26    29.97S
$$

TXZ026-029-035-045-048-250200-
SOUTHERN PANHANDLE/SOUTH PLAINS/ROLLING PLAINS

CITY           SKY/WX    TMP DP  RH WIND       PRES   REMARKS
CHILDRESS      CLEAR     93  65  39 S12       29.99R HX  95
SEMINOLE       CLEAR     94  45  18 E9        30.06S
LUBBOCK        PTCLDY    92  55  28 SE12      30.06F
PLAINVIEW      CLEAR     89  61  38 SE9       30.06S
SNYDER         CLEAR     94  58  29 E10       30.02R
$$

TXZ052-054-060>062-072-078-127-140-154-169-250200-
PERMIAN BASIN/CONCHO VALLEY/BIG COUNTRY/EDWARDS PLATEAU

CITY           SKY/WX    TMP DP  RH WIND       PRES   REMARKS
ABILENE        CLEAR     93  64  38 SE14      29.99S
BIG SPRING     PTCLDY    94  58  29 E8        30.03S
BRADY          CLEAR     90  64  43 E9        30.00R
BROWNWOOD      CLEAR     90  66  45 E12       29.98S
JUNCTION       MOCLDY    88  65  46 SE14G20   30.00R
MIDLAND        PTCLDY    94  57  28 S12       30.02R
ODESSA         CLEAR     96  52  22 E12       30.02F
SAN ANGELO     CLEAR     93  62  35 E13       29.99R
SONORA         PTCLDY    93  59  31 E13       30.04R
SWEETWATER     CLEAR     94  57  28 E10       30.04S
WINK           SUNNY     98  47  17 SE8       29.98S
$$

TXZ055-058-074-075-080-082-250200-
FAR WEST/SOUTHWEST MOUNTAINS/TRANS PECOS

CITY           SKY/WX    TMP DP  RH WIND       PRES   REMARKS
ALPINE         MOSUNNY   88  46  22 E9        30.18R
DRYDEN           N/A     92  64  39 SE24G32   29.98R
EL PASO        MOSUNNY   94  47  20 E7        30.03F
FORT STOCKTON  PTCLDY    92  52  25 E9        30.02S
GUADALUPE PASS SUNNY     84  42  22 E17         N/A
MARFA          MOSUNNY   86  46  25 E14       30.18S
PECOS          MOSUNNY   95  51  22 E7        29.98S
PRESIDIO       FAIR      96  48  19 NE10G17   29.96S
$$

TXZ014-016-019-021>030-083-250200
TEXAS TECH WEST TEXAS MESONET/TEXAS PANHANDLE/NORTHERN SOUTH PLAINS

CITY           SKY/WX    TMP DP  RH WIND       PRES   REMARKS
ABERNATHY 5ENE   N/A     89  57  33 SE8       30.08S
AMARILLO 9NNE    N/A     90  59  35 S14       30.03S
AMARILLO 7SSE    N/A     90  58  34 S15       30.08S
AMHERST 1NE      N/A     90  52  27 SE9       30.08S
BOOTLEG 11WNW    N/A     88  50  27 S12       30.13S
CANADIAN 6E      N/A     92  63  38 S17       29.96S
CAPROCK CYN SP   N/A     90  63  39 SE7       30.03R
CHILDRESS 2NNE   N/A     93  64  38 SE12      29.98S
CLARENDON 2WSW   N/A     90  60  36 SE9       30.03S
CLAUDE 12SW      N/A     90  58  34 S7        30.07S
DIMMITT 2NE      N/A     87  59  37 SE12      30.09S
FLOYDADA 2NNE    N/A     87  61  41 SE7       30.06F
FRIONA 2NE       N/A     88  54  31 SE16      30.10S
GOODLETT 3W      N/A     93  61  34 SE10      29.96S
HART 3N          N/A     87  59  39 SE8       30.09R
HEREFORD 2NW     N/A     88  51  28 SE12      30.08S
MCLEAN 1E        N/A     88  62  40 S10       30.02S
MEMPHIS 1NE      N/A     94  63  35 SE8       29.98S HX  95
MULESHOE 2SSW    N/A     90  48  23 SE10      30.08S
OLTON 6S         N/A     86  57  37 E8        30.08R
PALO DURO SP     N/A     91  58  33 S13       30.07S
PAMPA 2E         N/A     89  60  37 S14       30.03F
PLAINVIEW 1S     N/A     88  60  39 SE8       30.07S
SILVERTON 7ESE   N/A     88  61  40 SE9       30.06S
TULIA 2ENE       N/A     87  60  40 SE12      30.08S
TURKEY 2WSW      N/A     92  62  36 SE9       30.00S
UMBARGER 3NNE    N/A     88  55  32 S10       30.08F
$$

TXZ033>036-039>041-045>048-250200
TEXAS TECH WEST TEXAS MESONET/SOUTH PLAINS

CITY           SKY/WX    TMP DP  RH WIND       PRES   REMARKS
AIKEN 3WSW       N/A     85  63  47 SE8       30.08S
ANDREWS 2NE      N/A     96  44  16 E9        30.04S
ANTON 6SSW       N/A     92  54  26 SE9       30.06F
BROWNFIELD 2S    N/A     92  49  23 SE6       30.06S
DENVR CTY 7WNW   N/A     92  42  17 E8        30.08S
GAIL 2ESE        N/A     96  52  23 E8        30.00R
LAMESA 2SE       N/A     94  52  23 E7        30.04S
LEVELLAND 4S     N/A     92  49  23 E8        30.07S
LUBBOCK 3WNW     N/A     92  53  26 E9        30.06S
MORTON 1ENE      N/A     92  45  19 SE9       30.08S
ODONNELL 1N      N/A     92  51  24 E5        30.04S
PLAINS 3N        N/A     92  49  23 SE9       30.08S
RALLS 1SE        N/A     89  61  38 E7        30.07S
REESE CENTER     N/A     92  49  23 E10       30.06S
SEAGRAVES 1SW    N/A     94  46  19 E7        30.06R
SEMINOLE 2NNE    N/A     94  42  16 E8        30.05S
SLATON 2NE       N/A     91  55  28 E9        30.05S
SNYDER 3E        N/A     94  58  29 E13       30.00S
SUNDOWN 8SW      N/A     92  50  23 SE8       30.08S
TAHOKA 3NNE      N/A     94  53  25 SE5       30.04S
WOLFFORTH 6SSW   N/A     93  52  24 E8        30.06S
$$

TXZ031-032-036>038-042>044-250200-
TEXAS TECH WEST TEXAS MESONET/ROLLING PLAINS

CITY           SKY/WX    TMP DP  RH WIND       PRES   REMARKS
ASPERMONT 3NE    N/A     95  61  32 E9        29.98R HX  95
FLUVANNA 3WNW    N/A     94  53  25 E13       30.02S
GRAHAM 5SSW      N/A     94  51  23 E14       30.03R
GUTHRIE 10WSW    N/A     93  64  38 SE6       29.98S
HASKELL 1NW      N/A     92  60  33 E6        29.97R
JAYTON 1SSE      N/A     94  56  27 E8        29.99R
KNOX CITY 3NW    N/A     96  60  30 SE9       29.96S HX  95
NORTHFIELD 1S    N/A     94  62  34 SE8       29.98S
ODELL 4ENE       N/A     93  67  41 SE9       29.96S HX  96
PADUCAH 10SW     N/A     91  62  38 E8        29.98S
POST 1NE         N/A     94  53  24 E10       30.01S
RRING SPRGS 3N   N/A     91  64  39 SE6       30.03S
SEYMOUR 3NW      N/A     94  62  34 SE8       29.96R
SPUR 1W          N/A     92  57  30 SE6       30.00S
WEINERT 2NNE     N/A     94  64  36 E9        29.97R HX  95
WHITE RVR 6NE    N/A     93  57  30 E8        30.03S
$$

TXZ052-054-060>062-072-078-127-140-154-169-250200-
TEXAS TECH WEST TEXAS MESONET/PERMIAN BASIN/
CONCHO VALLEY/BIG COUNTRY/EDWARDS PLATEAU

CITY           SKY/WX    TMP DP  RH WIND       PRES   REMARKS
COYANOSA 2N      N/A     97  54  23 SE10      29.98S
JUNCTION 1SSW    N/A     88  66  48 SE10      30.00R
MERTZON 3NNE     N/A     92  62  36 E10       30.01S
SAN ANGELO 7NW   N/A     92  60  34 E8        29.99S
STRLNG CT 4WSW   N/A     92  62  36 E10       30.01S
ST LAWRNCE 5SW   N/A     91  56  31 E13       30.02S
SWEETWATR 11SW   N/A     91  65  41 SE14      30.03S
WALL 1E          N/A     91  61  35 E10       30.00S
$$

TXZ055-058-074-075-080-082-250200-
TEXAS TECH WEST TEXAS MESONET/FAR WEST/SOUTHWEST MOUNTAINS/TRANS PECOS

CITY           SKY/WX    TMP DP  RH WIND       PRES   REMARKS
PRSMN GAP BBNP   N/A     94  56  27 NE17      29.99S
GUADLPE MTN NP   N/A     83  44  24 E6        30.22F
$$